TimeEST,TemperatureF,Dew PointF,Humidity,Sea Level PressureIn,VisibilityMPH,Wind Direction,Wind SpeedMPH,Gust SpeedMPH,PrecipitationIn,Events,Conditions,WindDirDegrees,DateUTC
12:56 AM,34.0,23.0,64,30.27,10.0,SSW,6.9,-,N/A,,Clear,210,2013-12-28 05:56:00
1:56 AM,34.9,23.0,62,30.26,10.0,SW,9.2,-,N/A,,Partly Cloudy,220,2013-12-28 06:56:00
2:56 AM,36.0,24.1,62,30.25,10.0,SW,9.2,-,N/A,,Overcast,220,2013-12-28 07:56:00
3:56 AM,36.9,25.2,63,30.23,10.0,SW,10.4,-,N/A,,Overcast,230,2013-12-28 08:56:00
4:56 AM,37.9,25.2,60,30.24,10.0,SSW,11.5,-,N/A,,Overcast,210,2013-12-28 09:56:00
5:56 AM,36.9,25.2,63,30.25,10.0,SSW,6.9,-,N/A,,Overcast,200,2013-12-28 10:56:00
6:56 AM,35.6,24.8,65,30.18,10.0,SSW,9.2,-,N/A,,Partly Cloudy,210,2013-12-28 11:56:00
7:56 AM,36.0,24.1,62,30.27,10.0,SSW,8.1,-,N/A,,Clear,200,2013-12-28 12:56:00
8:56 AM,37.9,25.2,60,30.28,10.0,SSW,8.1,-,N/A,,Clear,210,2013-12-28 13:56:00
9:56 AM,39.9,27.1,60,30.27,10.0,SW,10.4,17.3,N/A,,Clear,230,2013-12-28 14:56:00
10:56 AM,43.0,28.0,56,30.26,10.0,SW,12.7,-,N/A,,Clear,230,2013-12-28 15:56:00
11:56 AM,46.9,30.0,52,30.23,10.0,SW,9.2,-,N/A,,Clear,220,2013-12-28 16:56:00
12:56 PM,48.9,30.0,48,30.19,10.0,SW,12.7,17.3,N/A,,Clear,230,2013-12-28 17:56:00
1:56 PM,50.0,30.0,46,30.17,10.0,SW,10.4,-,N/A,,Clear,220,2013-12-28 18:56:00
2:56 PM,50.9,28.0,41,30.17,10.0,SW,10.4,16.1,N/A,,Clear,230,2013-12-28 19:56:00
3:56 PM,50.0,28.0,43,30.17,10.0,SSW,10.4,17.3,N/A,,Clear,210,2013-12-28 20:56:00
4:56 PM,46.9,28.0,48,30.19,10.0,Variable,6.9,-,N/A,,Clear,0,2013-12-28 21:56:00
5:56 PM,45.0,28.0,52,30.17,10.0,South,5.8,-,N/A,,Clear,190,2013-12-28 22:56:00
6:56 PM,43.0,28.0,56,30.18,10.0,SSW,6.9,-,N/A,,Clear,200,2013-12-28 23:56:00
7:56 PM,43.0,28.0,56,30.18,10.0,South,6.9,-,N/A,,Clear,190,2013-12-29 00:56:00
8:56 PM,41.9,27.1,56,30.17,10.0,South,4.6,-,N/A,,Clear,190,2013-12-29 01:56:00
9:56 PM,41.9,26.1,53,30.15,10.0,Calm,Calm,-,N/A,,Clear,0,2013-12-29 02:56:00
10:56 PM,41.9,25.2,52,30.11,10.0,Calm,Calm,-,N/A,,Clear,0,2013-12-29 03:56:00
11:56 PM,41.0,25.2,53,30.09,10.0,Variable,4.6,-,N/A,,Clear,0,2013-12-29 04:56:00